Date String (YYYY-MM-DD hh:mm:ss) UTC,Instrument flags,Ambient pressure (hPa),Sample flow (lpm),Bypass flow (lpm),Sample temperature (°C),Ambient temperature (°C),ASC tube jacket temperature (°C),LED temperature (°C),Box temperature (°C),Sample RH (%),Span deviation,Mass concentration (μg/m³),Mass concentration (μg/m³),Mass concentration (μg/m³)
DateTimeUTC,F1_M11,P_M11,Q1_M11,Q2_M11,T1_M11,T2_M11,T3_M11,T4_M11,T5_M11,U1_M11,ZSPAN_M11,X0_M11,X2_M11,X1_M11
2022-11-13 05:00:00,,0823.1,5.00,0.00,22.3,20.7,00.0,31.3,24.1,08.2,0002.6,0012.65,0006.43,0005.65
2022-11-13 05:01:00,,0823.1,4.99,0.00,22.3,20.7,00.0,31.3,24.1,08.2,0002.8,0012.21,0006.42,0005.65
2022-11-13 05:02:00,,0823.1,5.00,0.00,22.3,20.6,00.0,31.3,24.1,08.2,0002.7,0012.08,0006.41,0005.67
2022-11-13 05:03:00,,0823.1,5.01,0.00,22.3,20.6,00.0,31.2,24.1,08.2,0002.8,0012.09,0006.44,0005.69
2022-11-13 05:04:00,,0823.1,5.00,0.00,22.3,20.6,00.0,31.2,24.1,08.2,0002.6,0013.39,0006.48,0005.70
2022-11-13 05:05:00,,0823.1,4.99,0.00,22.3,20.6,00.0,31.2,24.1,08.2,0002.6,0013.47,0006.47,0005.71
2022-11-13 05:06:00,,0823.0,4.99,0.00,22.3,20.6,00.0,31.2,24.1,08.2,0002.7,0013.31,0006.45,0005.71
2022-11-13 05:07:00,,0823.0,5.01,0.00,22.3,20.6,00.0,31.2,24.1,08.2,0003.7,0013.27,0006.43,0005.71
2022-11-13 05:08:00,,0823.1,5.00,0.00,22.3,20.6,00.0,31.2,24.1,08.2,0003.8,0013.09,0006.39,0005.70
2022-11-13 05:09:00,,0823.1,4.99,0.00,22.3,20.6,00.0,31.2,24.1,08.2,0003.7,0013.26,0006.40,0005.71
2022-11-13 05:10:00,,0823.1,5.00,0.00,22.3,20.6,00.0,31.2,24.1,08.2,0003.5,0013.16,0006.39,0005.70
2022-11-13 05:11:00,,0823.1,4.99,0.00,22.3,20.6,00.0,31.1,24.0,08.2,0003.1,0013.09,0006.39,0005.72
2022-11-13 05:12:00,,0823.0,5.01,0.00,22.2,20.6,00.0,31.1,24.0,08.2,0002.7,0013.67,0006.34,0005.70
2022-11-13 05:13:00,,0823.1,5.00,0.00,22.2,20.6,00.0,31.1,24.0,08.1,0002.4,0014.68,0006.32,0005.67
2022-11-13 05:14:00,,0823.1,5.00,0.00,22.2,20.5,00.0,31.1,23.9,08.1,0001.9,0014.65,0006.27,0005.62
2022-11-13 05:15:00,,0823.1,5.00,0.00,22.2,20.5,00.0,31.1,23.9,08.1,0002.0,0013.27,0006.20,0005.58
2022-11-13 05:16:00,,0823.0,5.00,0.00,22.2,20.5,00.0,31.1,23.9,08.1,0002.0,0013.08,0006.14,0005.55
2022-11-13 05:17:00,,0823.0,5.02,0.00,22.2,20.5,00.0,31.1,23.9,08.0,0002.3,0013.08,0006.13,0005.53
2022-11-13 05:18:00,,0823.0,5.01,0.00,22.2,20.4,00.0,31.1,23.9,08.0,0002.1,0013.45,0006.10,0005.50
2022-11-13 05:19:00,,0823.0,5.00,0.00,22.1,20.4,00.0,31.1,23.9,08.0,0002.6,0013.44,0006.03,0005.45
2022-11-13 05:20:00,,0822.9,5.00,0.00,22.2,20.5,00.0,31.0,24.0,08.0,0002.5,0013.21,0005.94,0005.41
2022-11-13 05:21:00,,0823.0,5.01,0.00,22.2,21.2,00.0,31.0,24.2,07.9,0002.7,0013.00,0005.89,0005.38
2022-11-13 05:22:00,,0822.9,5.00,0.00,22.3,21.9,00.0,31.0,24.3,07.9,0003.2,0012.70,0005.86,0005.34
2022-11-13 05:23:00,,0822.9,5.00,0.00,22.3,21.8,00.0,31.1,24.4,07.9,0003.4,0012.00,0005.85,0005.30
2022-11-13 05:24:00,,0822.9,5.00,0.00,22.3,21.6,00.0,31.1,24.3,07.9,0003.5,0011.39,0005.80,0005.28
2022-11-13 05:25:00,,0822.9,5.00,0.00,22.3,21.4,00.0,31.1,24.3,07.9,0004.0,0011.55,0005.80,0005.26
2022-11-13 05:26:00,,0822.9,4.99,0.00,22.3,21.3,00.0,31.1,24.3,07.9,0004.1,0011.46,0005.80,0005.26
2022-11-13 05:27:00,,0823.0,5.00,0.00,22.3,21.2,00.0,31.1,24.2,07.9,0004.1,0011.67,0005.80,0005.25
2022-11-13 05:28:00,,0822.9,5.00,0.00,22.3,21.1,00.0,31.2,24.2,07.9,0004.5,0012.13,0005.83,0005.24
2022-11-13 05:29:00,,0822.9,4.99,0.00,22.3,21.0,00.0,31.1,24.2,07.9,0004.3,0011.60,0005.84,0005.24
2022-11-13 05:30:00,,0822.9,5.01,0.00,22.3,21.0,00.0,31.1,24.2,07.9,0003.8,0011.38,0005.84,0005.24
2022-11-13 05:31:00,,0823.0,5.01,0.00,22.3,21.0,00.0,31.1,24.1,07.9,0003.9,0011.96,0005.85,0005.23
2022-11-13 05:32:00,,0822.9,4.99,0.00,22.3,20.9,00.0,31.1,24.1,07.9,0004.0,0012.11,0005.86,0005.22
2022-11-13 05:33:00,,0822.9,5.00,0.00,22.3,20.8,00.0,31.1,24.1,07.9,0004.2,0012.35,0005.83,0005.20
2022-11-13 05:34:00,,0823.2,4.99,0.00,22.3,20.8,00.0,31.1,24.1,07.9,0003.9,0012.68,0005.82,0005.20
2022-11-13 05:35:00,,0823.0,5.01,0.00,22.2,20.8,00.0,31.1,24.1,07.9,0004.1,0012.19,0005.82,0005.20
2022-11-13 05:36:00,,0822.9,5.01,0.00,22.2,20.8,00.0,31.1,24.0,07.9,0003.1,0011.92,0005.78,0005.20
2022-11-13 05:37:00,,0822.9,5.00,0.00,22.2,20.7,00.0,31.1,24.0,07.9,0003.6,0011.78,0005.75,0005.17
2022-11-13 05:38:00,,0823.0,5.00,0.00,22.2,20.7,00.0,31.1,24.0,07.9,0001.9,0011.65,0005.73,0005.17
2022-11-13 05:39:00,,0823.0,4.99,0.00,22.2,20.6,00.0,31.1,24.0,07.9,0000.9,0011.31,0005.72,0005.16
2022-11-13 05:40:00,,0823.0,4.99,0.00,22.2,20.6,00.0,31.1,23.9,08.0,0002.7,0011.32,0005.67,0005.15
2022-11-13 05:41:00,,0823.0,5.01,0.00,22.2,20.6,00.0,31.1,23.9,08.0,0003.7,0011.69,0005.67,0005.14
2022-11-13 05:42:00,,0823.0,4.99,0.00,22.1,20.6,00.0,31.1,23.9,08.0,0003.3,0011.09,0005.66,0005.15
2022-11-13 05:43:00,,0822.9,5.00,0.00,22.1,20.6,00.0,31.1,23.9,08.1,0002.7,0010.91,0005.64,0005.15
2022-11-13 05:44:00,,0822.9,5.01,0.00,22.1,20.6,00.0,31.1,23.9,08.0,0002.5,0010.73,0005.64,0005.16
2022-11-13 05:45:00,,0822.9,5.00,0.00,22.1,20.6,00.0,31.0,23.9,08.0,0000.8,0010.40,0005.64,0005.15
2022-11-13 05:46:00,,0822.9,5.00,0.00,22.1,20.8,00.0,31.0,24.0,08.0,-000.2,0010.37,0005.63,0005.13
2022-11-13 05:47:00,,0822.9,4.99,0.00,22.2,21.6,00.0,31.0,24.2,08.0,-001.1,0010.23,0005.63,0005.12
2022-11-13 05:48:00,,0822.9,4.99,0.00,22.3,22.3,00.0,31.0,24.4,07.9,-001.0,0010.46,0005.66,0005.12
2022-11-13 05:49:00,,0822.8,5.00,0.00,22.4,22.2,00.0,31.0,24.4,07.9,-000.7,0010.41,0005.66,0005.12
2022-11-13 05:50:00,,0822.8,5.00,0.00,22.4,21.9,00.0,31.1,24.4,07.8,-000.6,0010.23,0005.62,0005.11
2022-11-13 05:51:00,,0822.8,5.01,0.00,22.4,21.7,00.0,31.1,24.3,07.8,-001.3,0010.00,0005.63,0005.10
2022-11-13 05:52:00,,0822.8,5.00,0.00,22.4,21.5,00.0,31.1,24.3,07.7,-001.1,0009.57,0005.61,0005.09
2022-11-13 05:53:00,,0822.8,5.00,0.00,22.4,21.3,00.0,31.1,24.3,07.7,-001.1,0009.67,0005.60,0005.06
2022-11-13 05:54:00,,0822.8,5.00,0.00,22.3,21.2,00.0,31.2,24.2,07.7,-001.1,0009.86,0005.59,0005.04
2022-11-13 05:55:00,,0822.7,5.00,0.00,22.3,21.1,00.0,31.2,24.2,07.8,-000.7,0009.83,0005.59,0005.02
2022-11-13 05:56:00,,0822.8,4.99,0.00,22.3,21.0,00.0,31.2,24.2,07.8,-000.3,0010.03,0005.59,0005.01
2022-11-13 05:57:00,,0822.8,5.00,0.00,22.3,21.0,00.0,31.2,24.2,07.8,0000.0,0009.99,0005.57,0005.02
2022-11-13 05:58:00,,0822.8,5.00,0.00,22.3,20.9,00.0,31.2,24.2,07.7,0001.1,0009.84,0005.56,0005.01
2022-11-13 05:59:00,,0822.7,5.00,0.00,22.3,20.9,00.0,31.2,24.1,07.8,0000.7,0009.72,0005.54,0005.00
